Weather Roundup
Issued by NWS Chicago, IL

Home | Current Version | Previous Version | Graphics & Text | Print | Product List | Glossary On
Versions: 1 2 3 4 5 6 7 8 9 10 11 12 13 14 15 16 17 18 19 20 21 22 23 24 25 26 27 28 29 30 31 32 33 34 35 36 37 38 39 40 41 42 43 44 45 46 47 48 49 50
000
NZUS59 KLOT 281321
HRRLOT

CHICAGO AREA WEATHER ROUNDUP
NATIONAL WEATHER SERVICE CHICAGO/ROMEOVILLE IL
800 AM CDT THU MAY 28 2015

NOTE: "FAIR" INDICATES FEW OR NO CLOUDS BELOW 12,000 FEET WITH NO
SIGNIFICANT WEATHER AND/OR OBSTRUCTIONS TO VISIBILITY.

* THESE STATIONS ARE NOT UNDER NWS QUALITY CONTROL. THEY ALSO MAY NOT
  REPORT WEATHER SUCH AS PRECIPITATION OR FOG.

ILZ005-006-012>014-019>023-281400-
NORTHEAST ILLINOIS

CITY           SKY/WX    TMP DP  RH WIND       PRES   REMARKS
OHARE          MOSUNNY   66  56  70 CALM      30.20R
MIDWAY         MOSUNNY   68  57  68 CALM      30.20R
AURORA         SUNNY     67  57  70 CALM      30.20R
LANSING*       SUNNY     65  55  71 CALM      30.21S
JOLIET*        SUNNY     66  59  77 CALM      30.20R
WAUKEGAN       SUNNY     65  58  78 SW8       30.19R
DUPAGE AIRPORT SUNNY     65  57  75 S3        30.20R
WHEELING       SUNNY     67  56  67 CALM      30.21S
KANKAKEE*      SUNNY     66  59  78 E7        30.21R
MORRIS*        SUNNY     65  57  75 SE6       30.18R
LEWIS AIRPORT* SUNNY     66  57  73 CALM      30.20R
NORTHERLY IS     N/A     68  55  63 S3          N/A
$$

WIZ051-052-058>065-066-070>072-281400-
SOUTHEAST WISCONSIN

CITY           SKY/WX    TMP DP  RH WIND       PRES   REMARKS
MILWAUKEE      SUNNY     71  57  61 SW3       30.17S
KENOSHA*       SUNNY     66  59  78 SW6       30.20R
RACINE*        SUNNY     67  57  70 SW7       30.20R
BURLINGTON     SUNNY     64  59  84 SW3       30.19R
WAUKESHA       SUNNY     66  57  72 SW3       30.19S
WEST BEND      SUNNY     72  55  56 SW3       30.17S
$$

INZ001>003-010>013-019-020-281400-
NORTHWEST INDIANA

CITY           SKY/WX    TMP DP  RH WIND       PRES   REMARKS
GARY*          SUNNY     66  57  72 SE6       30.21F
MICHIGAN CITY* NOT AVBL
RENSSELAER*    NOT AVBL
VALPARAISO     SUNNY     63  56  78 S5        30.23S
$$

LMZ740>746-281400-
SOUTHERN LAKE MICHIGAN

STATION/POSITION TIME  SKY/WX   TEMP WIND        PRES    VSBY
                                AIR  DIR/SP/G
                 (UTC)          (F)  (DEG/KT/KT) (MB)    (MI)
HARRISON CRIB    1300            65  180/ 10/ 11   N/A
BURNHAM HARBOR   1300            68  200/  4/  8   N/A
CALUMET HARBOR   1200            62  200/  5/  7   N/A
BURNS HARBOR     1200            61  180/  9/ 13 1023.4R
MICHIGAN CITY    1300            64  140/  8/ 10   N/A
$$

ABBREVIATIONS USED IN REMARKS
   TC - TEMPERATURE IN CELSIUS
  WCI - WIND CHILL INDEX
   HX - HEAT INDEX
  VSB - VISIBILITY
$$



USA.gov is the U.S. government's official web portal to all federal, state and local government web resources and services.